O3b星座 PFM星 (O3B PFM)

导读

O3B PFM是O3B中圆地球轨道通信星座的首颗验证卫星,于2013年6月25日发射入轨。作为“中地球轨道卫星”星座的开路先锋,它主要为偏远地区、海上及发展中区域提供高速互联网与通信服务,弥补传统地面网络覆盖不足,支撑了后续O3B星座组网部署,推动了全球通信网络均衡覆盖发展,在卫星通信商业化进程中具有标志性意义。

基本信息
目录编号:
39191
目录名称:
O3B PFM
国际标识:
2013-031D
轨道中心:
EARTH
卫星名称:
O3b星座 PFM星
卫星全名:
O3b星座 PFM星 (O3B PFM)
卫星状态:
在轨 (已飞行4826 天)
发射日期:
2013-06-25 UTC
国别 :
(O3B)
星等 :
--
轨道信息
数据来源 国际轨道数据 AOE轨道数据
星历时间 2026-09-10T17:24:56+0800
18小时前
查看轨道信息
2026-09-10T13:00:00+0800
23小时前
查看轨道信息
半长轴 14444.018km 14444.02km
偏心率 0.0004849 0.0004624
轨道倾角 0.062° 0.064°
近地点辐角 168.237° 169.310°
升交点赤经 338.359° 337.603°
平近点角 213.433° 241.761°
近地点 8058.877km 8059.204km
远地点 8072.885km 8072.562km
周期 287.933分钟 287.933分钟
每日圈数 5.00116 5.001159
详细信息
平衡模式:
三轴稳定
覆盖范围:
全球
运营商:
欧洲卫星公司
运营商所在国:
卢森堡
制造商(研发单位):
阿莱尼亚宇航公司
制造商所在国:
意大利
使用方式:
暂无
卫星简介
O3b卫星星座分为O3b FM卫星星座和O3b mPOWER卫星星座,前者是由阿莱尼亚宇航公司制造的第一代O3b卫星星座,后者是由波音公司制造的第二代O3b卫星星座。O3b卫星初始星座运行于赤道圆轨道,轨道高度8062公里,能够覆盖全球南北纬45°之间所有地方,在南、北纬45°~62°范围内也能提供一定的服务。该卫星仍在工作。
2D轨道图
3D轨道图
轨道高度分析图
轨道倾角分析图
轨道综合分析图
查看轨道综合分析图
交会数据列表
事件ID 空间交会对象 最接近时刻(TCA) 交会距离 交会风险概率(CRP) 交会风险指数(CRI) 操作
CDM_260913-090803-919104-411321
O3B PFM (39191)
O3B FM19 (44113)
2026-09-13T
09:08:53+0000
2.843 km
极远距离
2.317585E-7 极低风险 0.22
CDM_260913-042003-919104-411321
O3B PFM (39191)
O3B FM19 (44113)
2026-09-13T
04:20:58+0000
2.849 km
极远距离
2.313224E-7 极低风险 0.22
CDM_260912-233303-919104-411321
O3B PFM (39191)
O3B FM19 (44113)
2026-09-12T
23:33:03+0000
2.855 km
极远距离
2.308831E-7 极低风险 0.22
CDM_260912-184503-919104-411321
O3B PFM (39191)
O3B FM19 (44113)
2026-09-12T
18:45:08+0000
2.861 km
极远距离
2.304412E-7 极低风险 0.22
CDM_260912-135703-919104-411321
O3B PFM (39191)
O3B FM19 (44113)
2026-09-12T
13:57:13+0000
2.867 km
极远距离
2.299968E-7 极低风险 0.22
CDM_260912-090903-919104-411321
O3B PFM (39191)
O3B FM19 (44113)
2026-09-12T
09:09:18+0000
2.873 km
极远距离
2.295504E-7 极低风险 0.22
CDM_260912-042103-919104-411321
O3B PFM (39191)
O3B FM19 (44113)
2026-09-12T
04:21:22+0000
2.879 km
极远距离
2.291022E-7 极低风险 0.22
CDM_260911-233303-919104-411321
O3B PFM (39191)
O3B FM19 (44113)
2026-09-11T
23:33:27+0000
2.885 km
极远距离
2.286524E-7 极低风险 0.22
CDM_260911-184503-919104-411321
O3B PFM (39191)
O3B FM19 (44113)
2026-09-11T
18:45:32+0000
2.892 km
极远距离
2.282012E-7 极低风险 0.22
CDM_260911-135703-919104-411321
O3B PFM (39191)
O3B FM19 (44113)
2026-09-11T
13:57:36+0000
2.898 km
极远距离
2.27749E-7 极低风险 0.22
与全量物体交会距离演化趋势
与全量物体交会风险概率演化趋势